period_start,C,m1,H,J0,J1,J2,J3,J4,J5,JA,JB,JC,JD,JJ,JK,JN,#
2015-11-28 00:03:43,0.06,2.97,0.00,20.05,24.86,28.64,14.84,50.35,1020.51,2041.99,2501.39,2397.66,2631.13,599.83,604.36,50.52,0000 0000 0000 0000 000000
2015-11-28 00:08:44,0.06,2.98,0.00,20.02,24.85,28.68,14.77,50.23,1020.52,2041.99,2500.38,2396.86,2630.20,599.62,604.14,50.57,0000 0000 0000 0000 000000
2015-11-28 00:13:46,0.05,2.98,0.00,19.98,24.85,28.65,14.84,50.23,1020.89,2041.99,2499.72,2396.06,2629.75,599.88,604.56,50.62,0000 0000 0000 0000 000000
2015-11-28 00:18:47,0.03,2.98,0.00,19.94,24.83,28.65,14.87,50.36,1021.07,2042.00,2499.01,2395.86,2629.05,600.10,604.99,50.67,0000 0000 0000 0000 000000
2015-11-28 00:23:49,0.06,2.99,0.00,19.91,24.82,28.61,14.83,50.17,1021.48,2042.00,2498.17,2395.09,2628.77,600.00,605.17,50.72,0000 0000 0000 0000 000000
2015-11-28 00:28:50,0.02,2.99,0.00,19.89,24.80,28.60,14.83,50.26,1021.51,2042.01,2497.74,2394.97,2628.03,599.99,605.19,50.78,0000 0000 0000 0000 000000
2015-11-28 00:33:51,0.06,2.99,0.00,19.87,24.80,28.57,14.92,50.08,1021.65,2042.02,2497.00,2394.25,2627.61,599.92,605.29,50.83,0000 0000 0000 0000 000000
2015-11-28 00:38:53,0.03,2.99,0.00,19.87,24.78,28.55,14.80,50.02,1021.68,2042.02,2496.18,2393.97,2627.02,599.76,605.28,50.88,0000 0000 0000 0000 000000
2015-11-28 00:43:54,0.07,3.00,0.00,19.87,24.77,28.56,14.83,49.84,1021.83,2042.06,2495.65,2393.21,2626.54,600.12,605.63,50.93,0000 0000 0000 0000 000000
2015-11-28 00:48:55,0.02,3.00,0.00,19.87,24.75,28.51,14.90,50.17,1021.58,2042.09,2495.01,2393.00,2626.00,600.13,605.53,50.98,0000 0000 0000 0000 000000
2015-11-28 00:53:56,0.08,3.00,0.00,19.87,24.75,28.55,14.80,50.19,1021.50,2042.20,2494.26,2392.42,2625.39,599.81,605.14,51.03,0000 0000 0000 0000 000000
2015-11-28 00:58:58,0.03,3.00,0.00,19.87,24.72,28.50,14.87,50.10,1021.37,2042.33,2493.68,2392.01,2624.99,600.29,605.49,51.08,0000 0000 0000 0000 000000
2015-11-28 01:03:59,0.08,3.01,0.00,19.85,24.72,28.50,14.88,50.21,1021.03,2042.48,2492.92,2391.44,2624.25,599.87,605.13,51.13,0000 0000 0000 0000 000000
2015-11-28 01:09:00,0.06,3.01,0.00,19.83,24.70,28.47,14.88,50.21,1021.01,2042.51,2492.04,2390.97,2623.76,599.86,604.90,51.18,0000 0000 0000 0000 000000
2015-11-28 01:14:02,0.09,3.01,0.00,19.82,24.69,28.44,14.93,50.29,1020.99,2042.81,2491.23,2390.22,2623.03,600.38,605.45,51.23,0000 0000 0000 0000 000000
2015-11-28 01:19:03,0.04,3.02,0.00,19.79,24.67,28.43,14.92,50.38,1021.01,2042.93,2490.38,2389.93,2622.74,600.18,605.35,51.28,0000 0000 0000 0000 000000
2015-11-28 01:24:04,0.07,3.02,0.00,19.78,24.66,28.44,14.89,50.27,1021.05,2042.93,2489.56,2389.10,2622.02,600.19,605.26,51.33,0000 0000 0000 0000 000000
2015-11-28 01:29:05,0.06,3.02,0.00,19.76,24.64,28.39,14.88,50.30,1021.32,2042.95,2488.68,2388.70,2621.25,599.59,604.97,51.38,0000 0000 0000 0000 000000
2015-11-28 01:34:07,0.04,3.03,0.00,19.74,24.62,28.37,14.83,50.34,1021.47,2042.97,2487.86,2388.02,2620.67,600.12,605.72,51.43,0000 0000 0000 0000 000000
2015-11-28 01:39:08,0.07,3.03,0.00,19.72,24.61,28.35,14.84,50.35,1021.48,2042.98,2486.81,2387.33,2619.93,599.67,605.23,51.48,0000 0000 0000 0000 000000
2015-11-28 01:44:09,0.04,3.03,0.00,19.71,24.59,28.33,14.85,50.53,1021.50,2042.98,2485.94,2386.88,2619.10,600.35,606.01,51.53,0000 0000 0000 0000 000000
2015-11-28 01:49:11,0.07,3.04,0.00,19.68,24.57,28.33,14.92,50.69,1021.52,2042.99,2485.08,2386.09,2618.66,599.68,605.38,51.58,0000 0000 0000 0000 000000
2015-11-28 01:54:12,0.06,3.04,0.00,19.67,24.55,28.31,14.91,50.49,1021.51,2042.99,2484.21,2385.53,2617.95,600.38,606.14,51.63,0000 0000 0000 0000 000000
2015-11-28 01:59:13,0.04,3.04,0.00,19.63,24.54,28.26,14.92,50.58,1021.52,2042.99,2483.30,2385.00,2617.13,600.04,605.75,51.68,0000 0000 0000 0000 000000
2015-11-28 02:04:15,0.08,3.05,0.00,19.61,24.52,28.27,14.90,50.60,1021.50,2043.00,2482.43,2384.30,2616.51,599.89,605.61,51.73,0000 0000 0000 0000 000000
2015-11-28 02:09:16,0.03,3.05,0.00,19.58,24.50,28.25,14.88,50.91,1021.29,2043.01,2481.63,2383.92,2615.97,600.30,606.06,51.79,0000 0000 0000 0000 000000
2015-11-28 02:14:17,0.07,3.05,0.00,19.55,24.48,28.23,14.86,51.10,1021.02,2043.06,2480.83,2383.13,2615.15,599.94,605.62,51.84,0000 0000 0000 0000 000000
2015-11-28 02:19:18,0.05,3.05,0.00,19.52,24.46,28.26,14.94,50.96,1021.03,2043.07,2479.95,2382.67,2614.58,600.34,605.94,51.89,0000 0000 0000 0000 000000
2015-11-28 02:24:20,0.09,3.06,0.00,19.49,24.45,28.21,14.89,50.87,1021.10,2043.32,2479.09,2382.02,2614.00,600.04,605.79,51.94,0000 0000 0000 0000 000000
2015-11-28 02:29:21,0.09,3.06,0.00,19.46,24.42,28.19,14.92,50.78,1021.05,2043.67,2478.25,2381.57,2613.29,600.14,606.02,51.99,0000 0000 0000 0000 000000
2015-11-28 02:34:22,0.06,3.07,0.00,19.43,24.40,28.15,14.90,50.92,1021.03,2043.70,2477.37,2380.97,2612.62,599.73,605.66,52.04,0000 0000 0000 0000 000000
2015-11-28 02:39:24,0.08,3.07,0.00,19.40,24.38,28.13,14.97,50.72,1021.40,2043.89,2476.42,2380.18,2611.97,600.10,606.25,52.09,0000 0000 0000 0000 000000
2015-11-28 02:44:25,0.05,3.07,0.00,19.37,24.36,28.08,14.92,50.61,1021.50,2043.97,2475.65,2379.86,2611.19,599.92,606.22,52.14,0000 0000 0000 0000 000000
2015-11-28 02:49:26,0.05,3.08,0.00,19.37,24.34,28.10,14.93,50.65,1021.50,2043.99,2474.86,2379.10,2610.78,599.92,606.25,52.19,0000 0000 0000 0000 000000
2015-11-28 02:54:28,0.05,3.08,0.00,19.35,24.32,28.07,14.91,50.59,1021.58,2043.99,2474.01,2378.77,2610.04,600.38,606.78,52.24,0000 0000 0000 0000 000000
2015-11-28 02:59:29,0.07,3.08,0.00,19.33,24.30,28.06,14.91,50.39,1021.62,2043.99,2473.12,2378.04,2609.38,600.18,606.65,52.29,0000 0000 0000 0000 000000
2015-11-28 03:04:31,0.05,3.09,0.00,19.32,24.27,28.04,14.85,50.18,1021.52,2043.99,2472.26,2377.50,2608.92,600.29,606.82,52.34,0000 0000 0000 0000 000000
2015-11-28 03:09:32,0.04,3.09,0.00,19.30,24.26,28.03,14.87,50.58,1021.50,2044.00,2471.62,2377.01,2608.17,599.71,606.36,52.39,0000 0000 0000 0000 000000
2015-11-28 03:14:34,0.05,3.09,0.00,19.29,24.23,28.01,14.96,50.65,1021.50,2044.00,2470.81,2376.51,2607.70,600.10,606.50,52.44,0000 0000 0000 0000 000000
2015-11-28 03:19:35,0.04,3.10,0.00,19.28,24.21,27.95,14.90,50.59,1021.50,2044.01,2469.92,2375.99,2607.02,600.15,606.67,52.49,0000 0000 0000 0000 000000
2015-11-28 03:24:36,0.08,3.10,0.00,19.25,24.19,27.92,14.92,50.42,1021.51,2044.05,2469.04,2375.30,2606.26,600.20,606.79,52.54,0000 0000 0000 0000 000000
2015-11-28 03:29:38,0.03,3.10,0.00,19.24,24.17,27.95,14.85,50.53,1021.53,2044.07,2468.19,2374.94,2605.83,599.85,606.41,52.59,0000 0000 0000 0000 000000
2015-11-28 03:34:39,0.08,3.11,0.00,19.22,24.15,27.90,14.79,50.23,1021.86,2044.15,2467.33,2374.12,2605.04,599.64,606.56,52.65,0000 0000 0000 0000 000000
2015-11-28 03:39:40,0.11,3.11,0.00,19.20,24.12,27.87,14.87,50.38,1021.98,2044.59,2466.50,2373.66,2604.33,600.32,607.24,52.70,0000 0000 0000 0000 000000
2015-11-28 03:44:42,0.07,3.11,0.00,19.19,24.10,27.83,14.95,50.49,1021.97,2044.91,2465.63,2373.02,2603.82,600.21,607.19,52.75,0000 0000 0000 0000 000000
2015-11-28 03:49:43,0.07,3.12,0.00,19.19,24.08,27.88,14.85,50.59,1021.78,2044.96,2464.70,2372.37,2603.02,599.51,606.51,52.80,0000 0000 0000 0000 000000
2015-11-28 03:54:44,0.04,3.12,0.00,19.17,24.06,27.84,14.91,50.50,1021.53,2044.99,2463.88,2371.94,2602.18,599.89,606.81,52.85,0000 0000 0000 0000 000000
2015-11-28 03:59:46,0.08,3.13,0.00,19.15,24.05,27.78,14.79,50.48,1021.51,2044.98,2462.90,2371.10,2601.57,599.99,606.85,52.90,0000 0000 0000 0000 000000
2015-11-28 04:04:47,0.06,3.13,0.00,19.13,24.02,27.79,14.94,50.54,1021.50,2044.99,2461.98,2370.57,2600.98,599.94,606.80,52.95,0000 0000 0000 0000 000000
2015-11-28 04:09:48,0.05,3.13,0.00,19.11,24.00,27.78,14.90,50.63,1021.45,2044.99,2461.11,2370.01,2600.23,599.85,606.60,53.00,0000 0000 0000 0000 000000
2015-11-28 04:14:49,0.07,3.13,0.00,19.08,23.98,27.74,14.82,50.67,1021.06,2044.99,2460.17,2369.29,2599.58,599.77,606.40,53.05,0000 0000 0000 0000 000000
2015-11-28 04:19:50,0.05,3.14,0.00,19.06,23.96,27.75,14.92,50.91,1021.00,2045.00,2459.20,2368.81,2598.86,600.24,606.94,53.10,0000 0000 0000 0000 000000
2015-11-28 04:24:52,0.07,3.14,0.00,19.01,23.95,27.72,14.87,50.88,1021.00,2045.02,2458.24,2368.02,2598.06,599.88,606.72,53.15,0000 0000 0000 0000 000000
2015-11-28 04:29:53,0.08,3.14,0.00,18.98,23.92,27.70,14.88,50.73,1021.01,2045.06,2457.35,2367.44,2597.38,599.84,606.62,53.20,0000 0000 0000 0000 000000
2015-11-28 04:34:55,0.06,3.15,0.00,18.95,23.90,27.67,14.97,50.83,1021.01,2045.15,2456.37,2366.98,2596.71,600.08,607.04,53.25,0000 0000 0000 0000 000000
2015-11-28 04:39:56,0.05,3.15,0.00,18.92,23.88,27.68,14.93,50.66,1021.01,2045.18,2455.34,2366.21,2595.89,600.01,606.99,53.30,0000 0000 0000 0000 000000
2015-11-28 04:44:58,0.12,3.16,0.00,18.89,23.86,27.61,14.97,50.67,1021.09,2045.35,2454.27,2365.45,2595.03,600.15,607.22,53.35,0000 0000 0000 0000 000000
2015-11-28 04:49:59,0.10,3.16,0.00,18.88,23.84,27.61,14.87,50.46,1021.40,2045.80,2453.21,2364.86,2594.18,599.70,607.00,53.40,0000 0000 0000 0000 000000
2015-11-28 04:55:00,0.08,3.17,0.00,18.86,23.82,27.61,15.00,50.61,1021.31,2045.96,2452.14,2364.06,2593.41,600.05,607.37,53.45,0000 0000 0000 0000 000000
2015-11-28 05:00:01,0.09,3.17,0.00,18.84,23.80,27.59,14.88,50.66,1021.05,2045.98,2450.87,2363.21,2592.52,600.10,607.28,53.50,0000 0000 0000 0000 000000
2015-11-28 05:05:02,0.10,3.18,0.00,18.81,23.77,27.53,14.94,50.66,1021.02,2045.98,2449.58,2362.34,2591.47,600.24,607.47,53.56,0000 0000 0000 0000 000000
2015-11-28 05:10:04,0.09,3.18,0.00,18.78,23.75,27.52,14.99,50.66,1021.02,2045.99,2448.33,2361.42,2590.45,600.09,607.35,53.61,0000 0000 0000 0000 000000
2015-11-28 05:15:05,0.08,3.19,0.00,18.75,23.73,27.51,14.95,50.67,1021.11,2045.99,2447.00,2360.61,2589.50,600.02,607.38,53.66,0000 0000 0000 0000 000000
2015-11-28 05:20:06,0.10,3.19,0.00,18.73,23.71,27.49,14.86,50.55,1021.09,2045.99,2445.63,2359.65,2588.44,599.83,607.26,53.71,0000 0000 0000 0000 000000
2015-11-28 05:25:08,0.10,3.20,0.00,18.70,23.68,27.44,14.93,50.56,1021.05,2046.00,2444.14,2358.60,2587.32,600.18,607.58,53.76,0000 0000 0000 0000 000000
2015-11-28 05:30:09,0.11,3.20,0.00,18.67,23.66,27.42,14.82,50.46,1021.08,2046.02,2442.60,2357.55,2586.14,599.90,607.41,53.81,0000 0000 0000 0000 000000
2015-11-28 05:35:11,0.12,3.21,0.00,18.65,23.63,27.41,14.86,50.44,1021.46,2046.07,2440.90,2356.46,2584.85,599.94,607.79,53.86,0000 0000 0000 0000 000000
2015-11-28 05:40:12,0.13,3.21,0.00,18.62,23.61,27.38,14.94,50.33,1021.45,2046.26,2439.29,2355.34,2583.63,599.77,607.63,53.91,0000 0000 0000 0000 000000
2015-11-28 05:45:13,0.17,3.22,0.00,18.60,23.59,27.40,14.92,50.52,1021.18,2046.75,2437.69,2354.27,2582.48,600.13,607.92,53.96,0000 0000 0000 0000 000000
2015-11-28 05:50:14,0.10,3.23,0.00,18.59,23.57,27.35,14.95,50.54,1021.06,2046.97,2436.27,2353.33,2581.43,600.05,607.70,54.01,0000 0000 0000 0000 000000
2015-11-28 05:55:16,0.10,3.23,0.00,18.57,23.55,27.29,14.93,50.50,1021.01,2046.97,2434.71,2352.27,2580.24,599.72,607.51,54.06,0000 0000 0000 0000 000000
2015-11-28 06:00:17,0.10,3.24,0.00,18.57,23.52,27.28,14.89,50.50,1021.01,2046.98,2433.20,2351.28,2579.04,599.84,607.54,54.11,0000 0000 0000 0000 000000
2015-11-28 06:05:18,0.10,3.25,0.00,18.57,23.50,27.25,14.88,50.54,1021.01,2046.99,2431.69,2350.18,2577.84,599.79,607.60,54.16,0000 0000 0000 0000 000000
2015-11-28 06:10:19,0.11,3.25,0.00,18.54,23.48,27.24,14.95,50.63,1021.02,2046.99,2430.15,2349.03,2576.63,600.03,607.82,54.21,0000 0000 0000 0000 000000
2015-11-28 06:15:21,0.14,3.26,0.00,18.52,23.46,27.22,14.95,50.67,1021.02,2046.99,2428.24,2347.76,2575.18,599.96,607.72,54.26,0000 0000 0000 0000 000000
2015-11-28 06:20:22,0.18,3.27,0.00,18.51,23.43,27.22,14.96,50.59,1021.02,2046.99,2425.77,2345.92,2573.24,600.07,607.83,54.31,0000 0000 0000 0000 000000
2015-11-28 06:25:23,0.13,3.27,0.00,18.49,23.42,27.19,14.87,50.61,1021.02,2046.99,2423.89,2344.65,2571.76,599.86,607.86,54.36,0000 0000 0000 0000 000000
2015-11-28 06:30:24,0.12,3.28,0.00,18.47,23.39,27.20,15.09,50.64,1021.01,2046.99,2422.00,2343.46,2570.33,600.39,608.27,54.41,0000 0000 0000 0000 000000
2015-11-28 06:35:25,0.14,3.29,0.00,18.47,23.37,27.13,14.98,50.69,1021.01,2046.99,2420.00,2342.01,2568.77,600.31,608.11,54.47,0000 0000 0000 0000 000000
2015-11-28 06:40:27,0.14,3.29,0.00,18.44,23.36,27.15,14.81,50.65,1021.01,2047.00,2418.05,2340.66,2567.36,599.55,607.51,54.52,0000 0000 0000 0000 000000
2015-11-28 06:45:28,0.14,3.30,0.00,18.43,23.34,27.12,14.98,50.63,1021.01,2047.03,2416.08,2339.31,2565.78,600.09,608.18,54.57,0000 0000 0000 0000 000000
2015-11-28 06:50:29,0.16,3.31,0.00,18.42,23.32,27.09,14.96,50.68,1021.00,2047.04,2413.84,2337.75,2564.12,599.86,607.93,54.62,0000 0000 0000 0000 000000
2015-11-28 06:55:31,0.15,3.32,0.00,18.40,23.30,27.10,14.98,50.63,1021.01,2047.08,2411.62,2336.30,2562.40,600.20,608.19,54.67,0000 0000 0000 0000 000000
2015-11-28 07:00:32,0.19,3.33,0.00,18.38,23.28,27.08,15.04,50.83,1021.01,2047.13,2409.17,2334.55,2560.55,600.26,608.29,54.72,0000 0000 0000 0000 000000
2015-11-28 07:05:33,0.20,3.34,0.00,18.37,23.26,27.08,14.88,50.65,1021.03,2047.42,2406.76,2332.81,2558.78,599.97,608.17,54.77,0000 0000 0000 0000 000000
2015-11-28 07:10:35,0.20,3.35,0.00,18.34,23.24,27.03,14.99,50.73,1021.01,2047.72,2404.45,2331.26,2557.13,600.18,608.42,54.82,0000 0000 0000 0000 000000
2015-11-28 07:15:36,0.19,3.36,0.00,18.33,23.22,27.04,15.00,50.58,1021.00,2047.93,2402.12,2329.66,2555.37,599.84,607.98,54.87,0000 0000 0000 0000 000000
2015-11-28 07:20:37,0.15,3.37,0.00,18.32,23.20,27.02,15.02,50.68,1021.01,2047.95,2399.92,2328.10,2553.59,600.12,608.35,54.92,0000 0000 0000 0000 000000
2015-11-28 07:25:39,0.16,3.38,0.00,18.31,23.18,27.03,14.96,50.59,1021.03,2047.97,2397.77,2326.63,2551.99,599.94,608.24,54.97,0000 0000 0000 0000 000000
2015-11-28 07:30:40,0.14,3.38,0.00,18.29,23.17,26.99,14.98,50.43,1021.02,2047.99,2395.75,2325.21,2550.44,600.03,608.27,55.02,0000 0000 0000 0000 000000
2015-11-28 07:35:41,0.16,3.39,0.00,18.28,23.14,26.98,14.90,50.52,1021.01,2047.99,2393.73,2323.80,2548.85,599.64,608.00,55.07,0000 0000 0000 0000 000000
2015-11-28 07:40:43,0.13,3.40,0.00,18.27,23.13,26.93,14.93,50.52,1020.99,2047.99,2391.76,2322.43,2547.40,599.62,607.94,55.12,0000 0000 0000 0000 000000
2015-11-28 07:45:44,0.13,3.41,0.00,18.27,23.11,26.93,14.90,50.44,1020.94,2048.00,2389.85,2321.07,2545.85,599.64,607.89,55.17,0000 0000 0000 0000 000000
2015-11-28 07:50:45,0.13,3.41,0.00,18.26,23.09,26.95,15.00,50.62,1020.66,2048.02,2388.12,2319.85,2544.50,600.17,608.42,55.22,0000 0000 0000 0000 000000
2015-11-28 07:55:46,0.13,3.42,0.00,18.24,23.08,26.94,14.99,50.66,1020.80,2048.03,2386.36,2318.57,2543.11,599.87,608.08,55.27,0000 0000 0000 0000 000000
2015-11-28 08:00:47,0.14,3.43,0.00,18.24,23.06,26.87,14.90,50.41,1020.96,2048.05,2384.53,2317.30,2541.63,600.15,608.51,55.33,0000 0000 0000 0000 000000
2015-11-28 08:05:48,0.12,3.43,0.00,18.24,23.04,26.86,14.93,50.43,1021.00,2048.10,2382.76,2316.00,2540.24,599.78,608.25,55.38,0000 0000 0000 0000 000000
2015-11-28 08:10:49,0.14,3.44,0.00,18.24,23.03,26.90,14.93,50.77,1020.99,2048.24,2381.12,2314.84,2538.95,599.94,608.27,55.43,0000 0000 0000 0000 000000
2015-11-28 08:15:51,0.15,3.45,0.00,18.23,23.02,26.89,14.93,50.67,1020.99,2048.44,2379.56,2313.69,2537.70,599.92,608.33,55.48,0000 0000 0000 0000 000000
2015-11-28 08:20:52,0.15,3.45,0.00,18.22,23.00,26.82,14.84,50.49,1021.01,2048.68,2377.90,2312.60,2536.44,599.50,607.98,55.53,0000 0000 0000 0000 000000
2015-11-28 08:25:53,0.12,3.46,0.00,18.22,22.99,26.82,14.94,50.55,1020.99,2048.93,2376.38,2311.51,2535.25,599.79,608.21,55.58,0000 0000 0000 0000 000000
2015-11-28 08:30:54,0.12,3.47,0.00,18.22,22.97,26.85,14.92,50.52,1020.61,2048.96,2374.74,2310.36,2533.96,599.80,608.07,55.63,0000 0000 0000 0000 000000
2015-11-28 08:35:55,0.12,3.47,0.00,18.20,22.96,26.80,14.96,50.63,1020.53,2048.98,2373.10,2309.24,2532.71,600.10,608.25,55.68,0000 0000 0000 0000 000000
2015-11-28 08:40:56,0.11,3.48,0.00,18.20,22.94,26.82,14.88,50.59,1020.52,2048.97,2371.40,2307.97,2531.42,599.97,608.14,55.73,0000 0000 0000 0000 000000
2015-11-28 08:45:58,0.15,3.49,0.00,18.20,22.93,26.84,14.97,50.67,1020.53,2048.98,2369.56,2306.71,2529.93,600.08,608.28,55.78,0000 0000 0000 0000 000000
2015-11-28 08:50:59,0.13,3.49,0.00,18.18,22.92,26.80,14.97,50.77,1020.53,2048.99,2367.74,2305.50,2528.56,600.07,608.25,55.83,0000 0000 0000 0000 000000
2015-11-28 08:56:01,0.12,3.50,0.00,18.17,22.91,26.75,14.96,50.64,1020.67,2048.99,2366.08,2304.15,2527.13,599.67,608.07,55.88,0000 0000 0000 0000 000000
2015-11-28 09:01:02,0.15,3.51,0.00,18.16,22.89,26.77,14.91,50.71,1020.99,2048.99,2364.13,2302.81,2525.58,599.92,608.37,55.93,0000 0000 0000 0000 000000
2015-11-28 09:06:03,0.15,3.52,0.00,18.17,22.88,26.75,14.96,50.87,1020.95,2048.99,2362.13,2301.49,2523.94,600.12,608.57,55.98,0000 0000 0000 0000 000000
2015-11-28 09:11:04,0.15,3.52,0.00,18.15,22.87,26.78,15.02,50.95,1020.92,2048.99,2360.10,2299.98,2522.33,600.08,608.56,56.03,0000 0000 0000 0000 000000
2015-11-28 09:16:06,0.17,3.53,0.00,18.12,22.86,26.69,14.97,50.86,1020.99,2048.99,2357.84,2298.47,2520.66,599.84,608.46,56.08,0000 0000 0000 0000 000000
2015-11-28 09:21:07,0.15,3.54,0.00,18.12,22.84,26.75,14.95,50.77,1021.01,2049.01,2355.70,2296.97,2519.02,600.11,608.75,56.13,0000 0000 0000 0000 000000
2015-11-28 09:26:09,0.17,3.55,0.00,18.12,22.84,26.73,14.93,50.77,1021.01,2049.02,2353.37,2295.40,2517.19,599.98,608.63,56.18,0000 0000 0000 0000 000000
2015-11-28 09:31:10,0.18,3.56,0.00,18.11,22.82,26.76,14.91,50.87,1021.01,2049.03,2351.14,2293.70,2515.45,599.86,608.58,56.23,0000 0000 0000 0000 000000
2015-11-28 09:36:11,0.17,3.57,0.00,18.09,22.82,26.71,14.96,50.81,1021.00,2049.05,2348.75,2292.09,2513.61,600.16,608.87,56.29,0000 0000 0000 0000 000000
2015-11-28 09:41:12,0.17,3.58,0.00,18.07,22.80,26.71,14.91,50.54,1021.13,2049.03,2346.34,2290.38,2511.71,600.07,608.92,56.34,0000 0000 0000 0000 000000
2015-11-28 09:46:13,0.20,3.59,0.00,18.08,22.79,26.67,15.01,50.73,1021.46,2049.16,2343.91,2288.72,2509.80,600.15,609.14,56.39,0000 0000 0000 0000 000000
2015-11-28 09:51:14,0.19,3.60,0.00,18.08,22.78,26.67,15.07,50.88,1021.37,2049.21,2341.36,2286.96,2507.84,600.21,609.16,56.44,0000 0000 0000 0000 000000
2015-11-28 09:56:15,0.20,3.61,0.00,18.07,22.77,26.68,15.02,50.69,1021.46,2049.17,2338.69,2285.01,2505.74,599.92,608.97,56.49,0000 0000 0000 0000 000000
2015-11-28 10:01:17,0.22,3.62,0.00,18.07,22.76,26.67,14.90,50.66,1021.17,2049.39,2335.98,2283.10,2503.66,599.77,608.61,56.54,0000 0000 0000 0000 000000
2015-11-28 10:06:18,0.24,3.63,0.00,18.07,22.74,26.68,14.95,50.85,1021.17,2049.69,2333.23,2281.20,2501.53,599.89,608.74,56.59,0000 0000 0000 0000 000000
2015-11-28 10:11:20,0.22,3.64,0.00,18.07,22.74,26.68,14.99,50.75,1021.36,2049.87,2330.47,2279.23,2499.33,599.76,608.66,56.64,0000 0000 0000 0000 000000
2015-11-28 10:16:21,0.21,3.65,0.00,18.05,22.73,26.66,15.05,50.67,1021.48,2049.87,2327.75,2277.28,2497.17,599.95,609.04,56.69,0000 0000 0000 0000 000000
2015-11-28 10:21:22,0.19,3.66,0.00,18.04,22.72,26.66,14.90,50.63,1021.43,2049.89,2325.13,2275.46,2495.27,599.64,608.64,56.74,0000 0000 0000 0000 000000
2015-11-28 10:26:23,0.20,3.67,0.00,18.04,22.72,26.64,14.89,50.52,1021.45,2049.93,2322.60,2273.64,2493.33,599.88,608.98,56.79,0000 0000 0000 0000 000000
2015-11-28 10:31:25,0.19,3.68,0.00,18.04,22.71,26.60,14.94,50.68,1021.17,2049.95,2320.05,2271.87,2491.36,599.96,608.87,56.84,0000 0000 0000 0000 000000
2015-11-28 10:36:26,0.20,3.69,0.00,18.05,22.70,26.63,14.97,50.52,1021.01,2049.93,2317.52,2269.95,2489.34,599.68,608.53,56.89,0000 0000 0000 0000 000000
2015-11-28 10:41:27,0.21,3.70,0.00,18.06,22.69,26.58,14.91,50.56,1021.01,2049.95,2314.73,2268.03,2487.20,599.82,608.58,56.94,0000 0000 0000 0000 000000
2015-11-28 10:46:28,0.20,3.71,0.00,18.04,22.69,26.61,14.99,50.66,1021.08,2049.97,2312.09,2266.12,2485.10,600.21,609.07,56.99,0000 0000 0000 0000 000000
2015-11-28 10:51:30,0.19,3.73,0.00,18.05,22.69,26.57,14.92,50.44,1021.35,2049.97,2309.61,2264.35,2483.12,600.11,609.07,57.04,0000 0000 0000 0000 000000
2015-11-28 10:56:31,0.20,3.74,0.00,18.07,22.67,26.58,14.98,50.56,1021.34,2049.96,2307.02,2262.52,2481.11,600.31,609.26,57.09,0000 0000 0000 0000 000000
2015-11-28 11:01:32,0.20,3.74,0.00,18.09,22.67,26.62,14.91,50.43,1021.48,2049.99,2304.52,2260.71,2479.16,599.99,608.95,57.14,0000 0000 0000 0000 000000
2015-11-28 11:06:34,0.18,3.75,0.00,18.09,22.67,26.60,14.96,50.60,1021.48,2049.98,2302.20,2258.93,2477.19,599.94,608.85,57.20,0000 0000 0000 0000 000000
2015-11-28 11:11:35,0.16,3.76,0.00,18.09,22.67,26.54,14.87,50.57,1021.20,2049.98,2300.01,2257.37,2475.45,599.38,608.23,57.25,0000 0000 0000 0000 000000
2015-11-28 11:16:36,0.18,3.77,0.00,18.12,22.67,26.59,14.97,50.82,1021.31,2049.98,2297.82,2255.75,2473.65,600.07,608.89,57.30,0000 0000 0000 0000 000000
2015-11-28 11:21:37,0.15,3.78,0.00,18.12,22.67,26.54,14.98,50.75,1021.13,2049.97,2295.80,2254.31,2472.05,600.22,608.94,57.35,0000 0000 0000 0000 000000
2015-11-28 11:26:38,0.16,3.79,0.00,18.11,22.67,26.54,14.94,50.37,1021.29,2049.98,2293.78,2252.87,2470.51,600.26,609.08,57.40,0000 0000 0000 0000 000000
2015-11-28 11:31:39,0.80,3.81,0.00,18.12,22.67,26.60,14.86,50.46,1021.08,2049.97,2284.49,2247.85,2464.97,599.84,608.59,57.45,0000 0000 0000 0000 000000
2015-11-28 11:36:41,0.20,3.84,0.00,18.12,22.67,26.59,14.96,50.53,1021.06,2049.96,2279.10,2244.72,2461.55,600.05,608.72,57.50,0000 0000 0000 0000 000000
2015-11-28 11:41:42,0.13,3.85,0.00,18.12,22.66,26.60,14.96,50.55,1021.03,2049.98,2277.24,2243.40,2460.06,600.25,608.91,57.55,0000 0000 0000 0000 000000
2015-11-28 11:46:43,0.14,3.85,0.00,18.12,22.66,26.57,14.98,50.92,1021.01,2049.98,2275.37,2241.99,2458.56,600.12,608.81,57.60,0000 0000 0000 0000 000000
2015-11-28 11:51:44,0.15,3.86,0.00,18.10,22.65,26.57,14.97,50.85,1021.00,2049.98,2273.59,2240.69,2457.16,599.99,608.61,57.65,0000 0000 0000 0000 000000
2015-11-28 11:56:45,0.14,3.87,0.00,18.09,22.65,26.55,14.88,50.91,1020.80,2049.98,2271.84,2239.49,2455.73,599.76,608.37,57.70,0000 0000 0000 0000 000000
2015-11-28 12:01:47,0.13,3.88,0.00,18.08,22.64,26.61,14.88,50.93,1020.73,2049.99,2270.05,2238.44,2454.40,599.79,608.36,57.75,0000 0000 0000 0000 000000
2015-11-28 12:06:48,0.12,3.88,0.00,18.09,22.64,26.64,14.90,50.88,1020.69,2049.98,2268.32,2237.20,2452.97,599.80,608.41,57.80,0000 0000 0000 0000 000000
2015-11-28 12:11:50,0.14,3.89,0.00,18.07,22.63,26.59,14.88,50.98,1020.54,2049.98,2266.62,2235.94,2451.68,599.72,608.17,57.85,0000 0000 0000 0000 000000
2015-11-28 12:16:51,0.14,3.90,0.00,18.03,22.62,26.57,14.98,51.06,1020.54,2049.98,2264.85,2234.70,2450.34,599.99,608.55,57.90,0000 0000 0000 0000 000000
2015-11-28 12:21:52,0.12,3.90,0.00,18.02,22.62,26.54,14.89,51.02,1020.61,2049.98,2263.28,2233.61,2449.00,599.70,608.31,57.95,0000 0000 0000 0000 000000
2015-11-28 12:26:53,0.14,3.91,0.00,17.99,22.61,26.55,14.91,51.06,1020.58,2049.98,2261.57,2232.37,2447.73,599.82,608.50,58.00,0000 0000 0000 0000 000000
2015-11-28 12:31:54,0.12,3.92,0.00,17.97,22.59,26.54,15.04,51.23,1020.59,2049.99,2259.87,2231.26,2446.46,600.47,609.19,58.06,0000 0000 0000 0000 000000
2015-11-28 12:36:55,0.14,3.92,0.00,17.96,22.59,26.53,14.98,51.10,1020.53,2049.99,2258.04,2229.93,2445.08,599.99,608.65,58.11,0000 0000 0000 0000 000000
2015-11-28 12:41:57,0.14,3.93,0.00,17.94,22.57,26.47,14.99,51.05,1020.55,2049.99,2256.27,2228.69,2443.68,600.19,608.94,58.16,0000 0000 0000 0000 000000
2015-11-28 12:46:58,0.14,3.94,0.00,17.92,22.57,26.51,14.93,50.81,1020.57,2049.99,2254.48,2227.50,2442.34,599.74,608.49,58.21,0000 0000 0000 0000 000000
2015-11-28 12:52:00,0.13,3.95,0.00,17.90,22.55,26.50,14.98,50.98,1020.52,2050.00,2252.72,2226.23,2440.88,599.99,608.79,58.26,0000 0000 0000 0000 000000
2015-11-28 12:57:01,0.14,3.95,0.00,17.89,22.54,26.47,14.96,50.73,1020.52,2050.00,2250.99,2224.92,2439.55,600.10,608.93,58.31,0000 0000 0000 0000 000000